STARLINK-3833 (52578 NORAD) Tracking and Keplerian Element Data
This shows tracking and keplerian element data for the satellite.
Feedback or suggestion? Click here.
Element | Value |
Catalog | 52578 |
Name | STARLINK-3833 |
Epoch Orbit | 964 |
Epoch Day | 192.91667824 |
Epoch Year | 2022 |
RAAN | 15.1149 |
Inclination | 53.22 |
Eccentricity | 0.0001725 |
Argument of Perigee | 44.4574 |
Mean Anonmoly | 174.5287 |
Mean Motion | 15.08840114 |
Decay Rate | -5.18E-06 |
L1 | 1 52578U 22051AU 22192.91667824 -.00000518 00000+0 -14451-4 0 9990 |
L2 | 2 52578 53.2200 15.1149 0001725 44.4574 174.5287 15.08840114 9640 |
Live tracking and technical data element details for STARLINK-3833 (NORAD 52578). STARLINK-3833 can be tracked NOW for your location showing map with azimuth and elevation plus other details from your city location.
Track the satellite on the map from your city or location and see movement details for azimuth, elevation, latitude, longitude, range, height, and movement on the map or in text.
IsCatalogInMostPopularTable: catalog: 52578, numindb: 8
Update: records affected: 1
GetName: 52578 STARLINK-3833
Hit Count: updated at: Sun, 14 Aug 2022 00:57:07 GMT